Tracking 35274 objects as of 10-Sep-2026
HD Live streaming from Space Station
objects crossing your sky now

SL-8 DEB


SL-8 DEB is no longer on orbit


NORAD ID: 1548
Int'l Code: 1965-020CU
Launch date: March 15, 1965
Source: Commonwealth of Independent States (former USSR) (CIS)
Launch site: TYURATAM MISSILE AND SPACE COMPLEX (TTMTR)
Decay date: 1978-05-27

Note: This is SATELLITE DEBRIS
Your satellite tracking list
Your tracking list is empty




NASA's NSSDC Master Catalog

Two Line Element Set (TLE):
1 01548U 65020 CU 78129.30397622  .00538540 +00000-0 +00000-0 0  9995
2 01548 055.9154 193.2552 0047196 045.5855 314.9011 15.90722179684678
Source of the keplerian elements: AFSPC